Time,TemperatureF,DewpointF,PressureIn,WindDirection,WindDirectionDegrees,WindSpeedMPH,WindSpeedGustMPH,Humidity,HourlyPrecipIn,Conditions,Clouds,dailyrainin,SoftwareType,DateUTC
2013-11-21 00:02:00,63.9,58.0,29.81,SSE,158,1.0,8.0,82,0.00,,,0.00,weatherlink.com 1.10,2013-11-21 07:02:00,
2013-11-21 00:17:00,63.9,58.0,29.81,SSE,159,4.0,7.0,82,0.00,,,0.00,weatherlink.com 1.10,2013-11-21 07:17:00,
2013-11-21 00:32:00,63.8,58.0,29.81,SSE,160,4.0,5.0,82,0.00,,,0.00,weatherlink.com 1.10,2013-11-21 07:32:00,
2013-11-21 00:47:00,63.7,59.0,29.81,SSE,165,2.0,8.0,83,0.00,,,0.00,weatherlink.com 1.10,2013-11-21 07:47:00,
2013-11-21 01:02:00,63.9,58.0,29.81,South,169,5.0,9.0,82,0.00,,,0.00,weatherlink.com 1.10,2013-11-21 08:02:00,
2013-11-21 01:17:00,64.2,58.0,29.80,South,176,2.0,10.0,81,0.00,,,0.00,weatherlink.com 1.10,2013-11-21 08:17:00,
2013-11-21 01:32:00,63.9,58.0,29.80,South,176,3.0,6.0,82,0.00,,,0.00,weatherlink.com 1.10,2013-11-21 08:32:00,
2013-11-21 01:47:00,63.3,58.0,29.81,South,176,4.0,7.0,83,0.00,,,0.00,weatherlink.com 1.10,2013-11-21 08:47:00,
2013-11-21 02:02:00,63.4,58.0,29.81,South,174,2.0,6.0,83,0.00,,,0.00,weatherlink.com 1.10,2013-11-21 09:02:00,
2013-11-21 02:17:00,63.3,58.0,29.81,South,174,1.0,5.0,83,0.00,,,0.00,weatherlink.com 1.10,2013-11-21 09:17:00,
2013-11-21 02:32:00,63.4,58.0,29.82,South,174,3.0,4.0,83,0.00,,,0.00,weatherlink.com 1.10,2013-11-21 09:32:00,
2013-11-21 02:47:00,63.4,58.0,29.81,South,175,2.0,4.0,83,0.00,,,0.00,weatherlink.com 1.10,2013-11-21 09:47:00,
2013-11-21 03:02:00,63.3,58.0,29.81,South,174,0.0,5.0,83,0.00,,,0.00,weatherlink.com 1.10,2013-11-21 10:02:00,
2013-11-21 03:17:00,63.2,58.0,29.81,South,174,2.0,6.0,83,0.00,,,0.00,weatherlink.com 1.10,2013-11-21 10:17:00,
2013-11-21 03:32:00,63.2,58.0,29.82,South,174,3.0,6.0,83,0.00,,,0.00,weatherlink.com 1.10,2013-11-21 10:32:00,
2013-11-21 03:47:00,63.1,58.0,29.82,South,174,0.0,0.0,84,0.00,,,0.00,weatherlink.com 1.10,2013-11-21 10:47:00,
2013-11-21 04:02:00,62.8,58.0,29.82,South,175,3.0,4.0,84,0.00,,,0.00,weatherlink.com 1.10,2013-11-21 11:02:00,
2013-11-21 04:17:00,62.6,58.0,29.83,South,174,0.0,4.0,84,0.00,,,0.00,weatherlink.com 1.10,2013-11-21 11:17:00,
2013-11-21 04:32:00,62.7,58.0,29.83,South,174,0.0,2.0,84,0.00,,,0.00,weatherlink.com 1.10,2013-11-21 11:32:00,
2013-11-21 04:47:00,63.0,58.0,29.83,South,174,0.0,1.0,84,0.00,,,0.00,weatherlink.com 1.10,2013-11-21 11:47:00,
2013-11-21 05:03:00,63.1,58.0,29.84,South,174,1.0,4.0,84,0.00,,,0.00,weatherlink.com 1.10,2013-11-21 12:03:00,
2013-11-21 05:17:00,63.0,58.0,29.84,South,174,0.0,3.0,84,0.00,,,0.00,weatherlink.com 1.10,2013-11-21 12:17:00,
2013-11-21 05:32:00,62.9,58.0,29.85,South,174,0.0,1.0,84,0.00,,,0.00,weatherlink.com 1.10,2013-11-21 12:32:00,
2013-11-21 05:47:00,62.8,58.0,29.86,South,174,0.0,1.0,85,0.00,,,0.00,weatherlink.com 1.10,2013-11-21 12:47:00,
2013-11-21 06:02:00,62.9,58.0,29.86,South,174,0.0,1.0,85,0.00,,,0.00,weatherlink.com 1.10,2013-11-21 13:02:00,
2013-11-21 06:17:00,62.9,58.0,29.87,South,174,0.0,3.0,85,0.00,,,0.00,weatherlink.com 1.10,2013-11-21 13:17:00,
2013-11-21 06:32:00,62.9,58.0,29.88,South,174,0.0,3.0,85,0.00,,,0.00,weatherlink.com 1.10,2013-11-21 13:32:00,
2013-11-21 06:48:00,62.6,58.0,29.89,South,174,0.0,2.0,86,0.00,,,0.00,weatherlink.com 1.10,2013-11-21 13:48:00,
2013-11-21 07:03:00,62.4,58.0,29.89,South,174,1.0,4.0,86,0.00,,,0.00,weatherlink.com 1.10,2013-11-21 14:03:00,
2013-11-21 07:18:00,62.4,59.0,29.89,South,175,2.0,4.0,87,0.00,,,0.00,weatherlink.com 1.10,2013-11-21 14:18:00,
2013-11-21 07:33:00,63.2,59.0,29.90,South,174,0.0,5.0,86,0.00,,,0.00,weatherlink.com 1.10,2013-11-21 14:33:00,
2013-11-21 07:48:00,63.8,59.0,29.91,South,174,0.0,4.0,85,0.00,,,0.00,weatherlink.com 1.10,2013-11-21 14:48:00,
2013-11-21 08:03:00,64.1,59.0,29.92,South,174,0.0,6.0,84,0.00,,,0.00,weatherlink.com 1.10,2013-11-21 15:03:00,
2013-11-21 08:18:00,64.5,59.0,29.92,South,174,0.0,3.0,83,0.00,,,0.00,weatherlink.com 1.10,2013-11-21 15:18:00,
2013-11-21 08:33:00,64.9,59.0,29.92,South,174,0.0,0.0,82,0.00,,,0.00,weatherlink.com 1.10,2013-11-21 15:33:00,
2013-11-21 08:48:00,66.3,60.0,29.93,South,174,1.0,5.0,80,0.00,,,0.00,weatherlink.com 1.10,2013-11-21 15:48:00,
2013-11-21 09:03:00,68.5,60.0,29.93,SSW,196,4.0,11.0,74,0.00,,,0.00,weatherlink.com 1.10,2013-11-21 16:03:00,
2013-11-21 09:18:00,69.5,59.0,29.93,SSW,208,4.0,8.0,70,0.00,,,0.00,weatherlink.com 1.10,2013-11-21 16:18:00,
2013-11-21 09:33:00,69.9,59.0,29.93,SW,220,2.0,10.0,68,0.00,,,0.00,weatherlink.com 1.10,2013-11-21 16:33:00,
2013-11-21 09:48:00,70.4,58.0,29.93,SW,220,5.0,9.0,66,0.00,,,0.00,weatherlink.com 1.10,2013-11-21 16:48:00,
2013-11-21 10:03:00,72.4,59.0,29.93,SSW,211,2.0,11.0,62,0.00,,,0.00,weatherlink.com 1.10,2013-11-21 17:03:00,
2013-11-21 10:18:00,73.6,59.0,29.92,SSW,211,0.0,9.0,60,0.00,,,0.00,weatherlink.com 1.10,2013-11-21 17:18:00,
2013-11-21 10:33:00,73.7,57.0,29.92,SW,227,13.0,16.0,57,0.00,,,0.00,weatherlink.com 1.10,2013-11-21 17:33:00,
2013-11-21 10:48:00,74.4,57.0,29.91,SW,236,7.0,17.0,55,0.00,,,0.00,weatherlink.com 1.10,2013-11-21 17:48:00,
2013-11-21 11:03:00,75.7,56.0,29.91,WSW,237,0.0,9.0,51,0.00,,,0.00,weatherlink.com 1.10,2013-11-21 18:03:00,
2013-11-21 11:18:00,75.4,54.0,29.91,NW,314,0.0,10.0,48,0.00,,,0.00,weatherlink.com 1.10,2013-11-21 18:18:00,
2013-11-21 11:33:00,75.3,47.0,29.91,NNW,335,8.0,10.0,37,0.00,,,0.00,weatherlink.com 1.10,2013-11-21 18:33:00,
2013-11-21 11:48:00,76.9,45.0,29.91,NNW,328,6.0,11.0,32,0.00,,,0.00,weatherlink.com 1.10,2013-11-21 18:48:00,
2013-11-21 12:03:00,74.5,47.0,29.93,NNW,343,19.0,32.0,38,0.00,,,0.00,weatherlink.com 1.10,2013-11-21 19:03:00,
2013-11-21 12:18:00,63.9,46.0,29.94,North,349,26.0,30.0,52,0.00,,,0.00,weatherlink.com 1.10,2013-11-21 19:18:00,
2013-11-21 12:34:00,59.0,44.0,29.97,North,359,24.0,33.0,57,0.00,,,0.00,weatherlink.com 1.10,2013-11-21 19:34:00,
2013-11-21 12:49:00,55.4,42.0,30.00,NNW,337,22.0,32.0,60,0.00,,,0.00,weatherlink.com 1.10,2013-11-21 19:49:00,
2013-11-21 13:04:00,52.3,39.0,30.01,NNW,330,19.0,31.0,62,0.00,,,0.00,weatherlink.com 1.10,2013-11-21 20:04:00,
2013-11-21 13:19:00,52.0,39.0,30.03,North,354,23.0,29.0,61,0.00,,,0.00,weatherlink.com 1.10,2013-11-21 20:19:00,
2013-11-21 13:34:00,50.1,38.0,30.04,North,10,15.0,28.0,64,0.00,,,0.00,weatherlink.com 1.10,2013-11-21 20:34:00,
2013-11-21 13:49:00,48.9,37.0,30.05,NNW,342,22.0,29.0,64,0.00,,,0.00,weatherlink.com 1.10,2013-11-21 20:49:00,
2013-11-21 14:04:00,48.6,37.0,30.07,NNW,342,18.0,28.0,65,0.00,,,0.00,weatherlink.com 1.10,2013-11-21 21:04:00,
2013-11-21 14:19:00,47.3,36.0,30.09,North,354,11.0,27.0,64,0.00,,,0.00,weatherlink.com 1.10,2013-11-21 21:19:00,
2013-11-21 14:34:00,46.4,35.0,30.10,North,359,22.0,26.0,64,0.00,,,0.00,weatherlink.com 1.10,2013-11-21 21:34:00,
2013-11-21 14:49:00,45.2,34.0,30.11,NNE,16,14.0,28.0,66,0.00,,,0.00,weatherlink.com 1.10,2013-11-21 21:49:00,
2013-11-21 15:04:00,44.6,33.0,30.12,North,4,13.0,26.0,65,0.00,,,0.00,weatherlink.com 1.10,2013-11-21 22:04:00,
2013-11-21 15:19:00,43.3,33.0,30.13,North,359,23.0,32.0,67,0.00,,,0.00,weatherlink.com 1.10,2013-11-21 22:19:00,
2013-11-21 15:34:00,42.8,32.0,30.14,North,349,16.0,30.0,67,0.00,,,0.00,weatherlink.com 1.10,2013-11-21 22:34:00,
2013-11-21 15:49:00,41.3,32.0,30.16,North,354,20.0,29.0,69,0.00,,,0.00,weatherlink.com 1.10,2013-11-21 22:49:00,
2013-11-21 16:04:00,40.3,31.0,30.17,North,354,20.0,27.0,70,0.00,,,0.00,weatherlink.com 1.10,2013-11-21 23:04:00,
2013-11-21 16:19:00,39.0,31.0,30.18,North,359,19.0,29.0,72,0.00,,,0.00,weatherlink.com 1.10,2013-11-21 23:19:00,
2013-11-21 16:34:00,38.4,30.0,30.18,North,11,15.0,27.0,72,0.00,,,0.00,weatherlink.com 1.10,2013-11-21 23:34:00,
2013-11-21 16:49:00,37.9,30.0,30.20,North,354,17.0,28.0,72,0.00,,,0.00,weatherlink.com 1.10,2013-11-21 23:49:00,
2013-11-21 17:05:00,37.5,29.0,30.21,NNE,13,23.0,29.0,72,0.00,,,0.00,weatherlink.com 1.10,2013-11-22 00:05:00,
2013-11-21 17:20:00,36.4,29.0,30.23,North,354,20.0,31.0,74,0.00,,,0.00,weatherlink.com 1.10,2013-11-22 00:20:00,
2013-11-21 17:35:00,36.4,28.0,30.25,North,359,20.0,25.0,72,0.00,,,0.00,weatherlink.com 1.10,2013-11-22 00:35:00,
2013-11-21 17:50:00,36.1,28.0,30.26,North,4,16.0,28.0,72,0.00,,,0.00,weatherlink.com 1.10,2013-11-22 00:50:00,
2013-11-21 18:05:00,35.9,27.0,30.27,North,4,20.0,28.0,71,0.00,,,0.00,weatherlink.com 1.10,2013-11-22 01:05:00,
2013-11-21 18:20:00,35.5,27.0,30.28,North,8,17.0,25.0,72,0.00,,,0.00,weatherlink.com 1.10,2013-11-22 01:20:00,
2013-11-21 18:35:00,35.0,26.0,30.29,NNE,16,20.0,27.0,71,0.00,,,0.00,weatherlink.com 1.10,2013-11-22 01:35:00,
2013-11-21 18:50:00,34.7,26.0,30.29,NNE,15,20.0,29.0,71,0.00,,,0.00,weatherlink.com 1.10,2013-11-22 01:50:00,
2013-11-21 19:05:00,34.5,26.0,30.31,North,359,17.0,25.0,71,0.00,,,0.00,weatherlink.com 1.10,2013-11-22 02:05:00,
2013-11-21 19:20:00,34.3,25.0,30.33,North,8,19.0,27.0,69,0.00,,,0.00,weatherlink.com 1.10,2013-11-22 02:20:00,
2013-11-21 19:35:00,34.1,25.0,30.33,NNW,348,10.0,29.0,70,0.00,,,0.00,weatherlink.com 1.10,2013-11-22 02:35:00,
2013-11-21 19:50:00,34.1,25.0,30.34,North,349,16.0,24.0,70,0.00,,,0.00,weatherlink.com 1.10,2013-11-22 02:50:00,
2013-11-21 20:05:00,33.9,25.0,30.36,North,8,17.0,23.0,69,0.00,,,0.00,weatherlink.com 1.10,2013-11-22 03:05:00,
2013-11-21 20:20:00,33.7,25.0,30.37,NNE,16,19.0,24.0,69,0.00,,,0.00,weatherlink.com 1.10,2013-11-22 03:20:00,
2013-11-21 20:35:00,33.5,24.0,30.37,NNE,22,16.0,25.0,69,0.00,,,0.00,weatherlink.com 1.10,2013-11-22 03:35:00,
2013-11-21 20:50:00,33.2,24.0,30.38,North,354,15.0,25.0,68,0.00,,,0.00,weatherlink.com 1.10,2013-11-22 03:50:00,
2013-11-21 21:05:00,33.2,24.0,30.39,NNE,13,9.0,24.0,69,0.00,,,0.00,weatherlink.com 1.10,2013-11-22 04:05:00,
2013-11-21 21:20:00,32.8,24.0,30.40,North,4,20.0,25.0,69,0.00,,,0.00,weatherlink.com 1.10,2013-11-22 04:20:00,
2013-11-21 21:35:00,32.7,24.0,30.41,North,354,18.0,27.0,69,0.00,,,0.00,weatherlink.com 1.10,2013-11-22 04:35:00,
2013-11-21 21:50:00,32.4,23.0,30.42,NNW,347,22.0,23.0,68,0.00,,,0.00,weatherlink.com 1.10,2013-11-22 04:50:00,
2013-11-21 22:05:00,32.3,23.0,30.43,North,4,18.0,26.0,68,0.00,,,0.00,weatherlink.com 1.10,2013-11-22 05:05:00,
2013-11-21 22:20:00,32.2,23.0,30.44,North,4,21.0,24.0,68,0.00,,,0.00,weatherlink.com 1.10,2013-11-22 05:20:00,
2013-11-21 22:35:00,32.1,23.0,30.45,North,4,18.0,25.0,68,0.00,,,0.00,weatherlink.com 1.10,2013-11-22 05:35:00,
2013-11-21 22:50:00,32.0,22.0,30.45,North,4,22.0,26.0,68,0.00,,,0.00,weatherlink.com 1.10,2013-11-22 05:50:00,
2013-11-21 23:05:00,32.1,22.0,30.45,NNE,22,21.0,25.0,67,0.00,,,0.00,weatherlink.com 1.10,2013-11-22 06:05:00,
2013-11-21 23:20:00,31.8,22.0,30.45,North,359,22.0,25.0,67,0.00,,,0.00,weatherlink.com 1.10,2013-11-22 06:20:00,
2013-11-21 23:36:00,31.7,21.0,30.45,NNE,12,18.0,28.0,66,0.00,,,0.00,weatherlink.com 1.10,2013-11-22 06:36:00,
2013-11-21 23:51:00,31.6,21.0,30.45,NNE,28,20.0,26.0,65,0.00,,,0.00,weatherlink.com 1.10,2013-11-22 06:51:00,